• Join FlightAware (Why Join?)
  • Login
  • US Flag 
07:55PM EST


 

Airport Tracker/Info


-or-


 

Live Flight TrackerFlight Track Log ✈ N319EE ✈ 02-Oct-2013 ✈ KROC - KPWM

Flight Track Log - Related Links

Times and Time Zones

All times are in EDT time to prevent confusion due to time zone crossing. See the N319EE flight status page for this flight to view local times or setup timezone preferences in your user account.

Time Position Orientation Groundspeed Altitude Reporting Facility
EDT Latitude Longitude Course Direction KTS MPH feet Rate Location/Type
06:21PM 43.0869 -77.7228 228° Southwest 174 200 2,400  Level Cleveland Center
06:22PM 43.0600 -77.6967 145° Southeast 198 228 3,600 1,869 Climbing Cleveland Center
06:22PM 43.0556 -77.6739 105° East 199 229 4,300 1,935 Climbing Cleveland Center
06:23PM 43.0581 -77.6244 86° East 192 221 5,600 1,829 Climbing Cleveland Center
06:24PM 43.0647 -77.5483 83° East 198 228 7,500 1,839 Climbing Cleveland Center
06:25PM 43.0922 -77.4856 59° Northeast 195 224 9,400 1,742 Climbing Cleveland Center
06:26PM 43.1236 -77.4206 56° Northeast 203 234 11,100 1,548 Climbing Cleveland Center
06:27PM 43.1550 -77.3539 57° Northeast 206 237 12,600 1,548 Climbing Cleveland Center
06:28PM 43.1858 -77.2811 60° Northeast 217 250 14,300 1,742 Climbing Cleveland Center
06:29PM 43.1956 -77.1794 82° East 237 273 16,200 1,597 Climbing Cleveland Center
06:30PM 43.1931 -77.0847 92° East 246 283 17,600 1,248 Climbing Cleveland Center
06:31PM 43.1900 -76.9906 93° East 247 284 18,800 1,104 Climbing Cleveland Center
06:32PM 43.1861 -76.8953 93° East 249 287 19,900 1,016 Climbing Cleveland Center
06:34PM 43.1825 -76.7967 93° East 258 297 20,900 532 Climbing Cleveland Center
06:35PM 43.1783 -76.6842 93° East 280 322 21,000 48 Climbing Cleveland Center
06:36PM 43.1744 -76.5653 93° East 309 356 21,000  Level Cleveland Center
06:37PM 43.1686 -76.4158 93° East 326 375 21,000  Level Cleveland Center
06:38PM 43.1633 -76.2883 93° East 335 386 21,000  Level Cleveland Center
06:39PM 43.1622 -76.1836 91° East 332 382 21,000  Level Boston Center
06:40PM 43.1725 -76.0617 83° East 327 376 21,000  Level Boston Center
06:41PM 43.1825 -75.9400 84° East 327 376 21,000  Level Boston Center
06:42PM 43.1922 -75.8208 84° East 327 376 21,000  Level Boston Center
06:43PM 43.2000 -75.7017 85° East 322 371 21,000  Level Boston Center
06:44PM 43.2094 -75.5825 84° East 317 365 21,000  Level Boston Center
06:45PM 43.2189 -75.4631 84° East 312 359 21,000  Level Boston Center
06:46PM 43.2286 -75.3297 84° East 312 359 21,000  Level Boston Center
06:47PM 43.2358 -75.2075 85° East 312 359 21,000  Level Boston Center
06:48PM 43.2450 -75.0853 84° East 312 359 21,000  Level Boston Center
06:49PM 43.2561 -74.9717 82° East 312 359 21,000  Level Boston Center
06:50PM 43.2628 -74.8464 86° East 312 359 21,000  Level Boston Center
06:51PM 43.2714 -74.7300 84° East 312 359 21,000  Level Boston Center
06:52PM 43.2800 -74.6106 84° East 312 359 21,000  Level Boston Center
06:53PM 43.2886 -74.4911 84° East 312 359 21,000  Level Boston Center
06:54PM 43.2969 -74.3714 84° East 312 359 21,000  Level Boston Center
06:55PM 43.3053 -74.2489 85° East 312 359 21,000  Level Boston Center
06:56PM 43.3131 -74.1322 85° East 312 359 21,000  Level Boston Center
06:57PM 43.3189 -74.0153 86° East 312 359 21,000  Level Boston Center
06:58PM 43.3247 -73.8986 86° East 312 359 21,000  Level Boston Center
06:59PM 43.3347 -73.7761 84° East 307 353 21,000  Level Boston Center
07:00PM 43.3400 -73.6675 86° East 313 360 21,000  Level Boston Center
07:01PM 43.3475 -73.5508 85° East 308 354 21,000  Level Boston Center
07:02PM 43.3547 -73.4308 85° East 308 354 21,000  Level Boston Center
07:03PM 43.3642 -73.3025 84° East 308 354 21,000  Level Boston Center
07:04PM 43.3711 -73.1856 85° East 308 354 21,000  Level Boston Center
07:05PM 43.3781 -73.0656 85° East 308 354 21,000  Level Boston Center
07:06PM 43.3850 -72.9458 85° East 308 354 21,000 -50 Level Boston Center
07:07PM 43.3917 -72.8231 86° East 308 354 20,900 -400 Descending Boston Center
07:08PM 43.3964 -72.6972 87° East 308 354 20,200 -857 Descending Boston Center
07:09PM 43.4006 -72.5686 87° East 318 366 19,200 -1,109 Descending Boston Center
07:10PM 43.4111 -72.4344 84° East 337 388 18,000 -1,240 Descending Boston Center
07:11PM 43.4172 -72.3000 86° East 348 400 16,700 -1,240 Descending Boston Center
07:12PM 43.4214 -72.1656 88° East 348 400 15,500 -857 Descending Boston Center
07:13PM 43.4272 -72.0342 86° East 348 400 15,000 -650 Descending Boston Center
07:14PM 43.4328 -71.9056 87° East 343 395 14,200 -650 Descending Boston Center
07:15PM 43.4386 -71.7911 86° East 338 389 13,700 -605 Descending Boston Center
07:16PM 43.4439 -71.6508 87° East 332 382 13,000 -590 Descending Boston Center
07:17PM 43.4472 -71.5422 88° East 325 374 12,500 -504 Descending Boston Center
07:18PM 43.4544 -71.4075 86° East 325 374 12,000 -508 Descending Boston Center
07:19PM 43.4575 -71.2875 88° East 320 368 11,500 -400 Descending Boston Center
07:20PM 43.4625 -71.1786 86° East 314 361 11,200 -248 Descending Boston Center
07:21PM 43.4861 -71.0608 75° East 291 335 11,000 -99 Descending Boston Center
07:22PM 43.5100 -70.9714 70° East 279 321 11,000 -450 Level Boston Center
07:23PM 43.5356 -70.8592 73° East 279 321 10,100 -992 Descending Boston Center
07:24PM 43.5342 -70.7533 91° East 288 331 9,000 -1,311 Descending Boston Center
07:25PM 43.5281 -70.6275 94° East 297 342 7,500 -1,220 Descending Boston Center
07:26PM 43.5244 -70.5358 93° East 280 322 6,600 -1,450 Descending Boston Center
07:27PM 43.5500 -70.4378 70° East 255 293 4,600 -1,785 Descending Boston Center
07:28PM 43.5819 -70.3678 58° Northeast 241 277 3,000 -1,426 Descending Boston Center
07:29PM 43.6097 -70.2836 65° Northeast 226 260 1,700 -1,140 Descending Boston Center
07:30PM 43.6364 -70.2656 26° Northeast 120 138 700 -800 Descending Boston Center
07:31PM 43.6497 -70.3108 292° West 98 113 100 -600 Descending Boston Center